TimeEDT,TemperatureF,Dew PointF,Humidity,Sea Level PressureIn,VisibilityMPH,Wind Direction,Wind SpeedMPH,Gust SpeedMPH,PrecipitationIn,Events,Conditions,WindDirDegrees,DateUTC
12:51 AM,66.0,51.1,59,29.63,10.0,SSW,9.2,-,N/A,,Partly Cloudy,200,2014-04-15 04:51:00
1:51 AM,66.2,53.6,64,29.64,10.0,SSW,9.2,-,N/A,,Mostly Cloudy,200,2014-04-15 05:51:00
2:51 AM,52.0,50.0,93,29.65,10.0,NW,19.6,26.5,0.00,Rain,Light Rain,320,2014-04-15 06:51:00
3:00 AM,51.1,48.9,92,29.67,10.0,NW,17.3,26.5,0.00,Rain,Light Rain,310,2014-04-15 07:00:00
3:51 AM,46.0,44.1,93,29.69,6.0,NW,12.7,25.3,0.03,Rain,Light Rain,310,2014-04-15 07:51:00
4:51 AM,42.1,41.0,96,29.72,5.0,NW,9.2,23.0,0.02,Rain,Light Rain,320,2014-04-15 08:51:00
5:39 AM,39.0,37.9,96,29.76,4.0,WNW,11.5,20.7,0.02,Rain,Light Rain,300,2014-04-15 09:39:00
5:51 AM,39.0,37.9,96,29.76,4.0,WNW,10.4,-,0.03,Rain,Light Rain,300,2014-04-15 09:51:00
6:24 AM,37.9,37.0,97,29.78,7.0,NW,9.2,19.6,0.03,Rain,Light Rain,320,2014-04-15 10:24:00
6:31 AM,37.9,36.0,93,29.79,6.0,WNW,10.4,19.6,0.04,Rain,Light Rain,300,2014-04-15 10:31:00
6:40 AM,37.9,37.0,97,29.80,3.0,WNW,11.5,21.9,0.05,Rain,Rain,300,2014-04-15 10:40:00
6:51 AM,37.0,36.0,96,29.81,4.0,WNW,9.2,20.7,0.07,Rain,Light Rain,290,2014-04-15 10:51:00
6:59 AM,36.0,35.1,97,29.81,2.5,WNW,8.1,19.6,0.01,Rain,Light Rain,300,2014-04-15 10:59:00
7:51 AM,36.0,35.1,97,29.87,3.0,WNW,12.7,20.7,0.05,Rain,Light Rain,290,2014-04-15 11:51:00
8:49 AM,33.8,32.0,93,29.91,2.0,WNW,6.9,-,0.03,Snow,Light Snow,290,2014-04-15 12:49:00
8:51 AM,33.1,32.0,96,29.91,2.0,WNW,8.1,17.3,0.04,Snow,Light Snow,300,2014-04-15 12:51:00
9:20 AM,33.1,32.0,96,29.93,1.0,NW,10.4,-,0.02,Snow,Light Snow,310,2014-04-15 13:20:00
9:31 AM,32.0,32.0,100,29.92,0.8,NW,8.1,17.3,0.03,Snow,Light Snow,320,2014-04-15 13:31:00
9:51 AM,32.0,32.0,100,29.93,0.8,WNW,8.1,-,0.05,Snow,Light Snow,300,2014-04-15 13:51:00
10:51 AM,32.0,32.0,100,29.95,0.8,NW,9.2,-,0.02,Snow,Light Snow,320,2014-04-15 14:51:00
10:58 AM,33.1,32.0,96,29.96,1.8,NW,5.8,-,0.01,Snow,Light Snow,320,2014-04-15 14:58:00
11:03 AM,33.1,33.1,100,29.97,3.0,Variable,5.8,-,0.01,Snow,Light Snow,0,2014-04-15 15:03:00
11:27 AM,34.0,32.0,92,29.96,5.0,NNW,10.4,-,0.01,Snow,Light Snow,330,2014-04-15 15:27:00
11:44 AM,33.1,32.0,96,29.99,1.2,Variable,6.9,-,0.01,Snow,Light Snow,0,2014-04-15 15:44:00
11:47 AM,32.0,30.2,93,29.99,0.8,NW,8.1,-,0.02,Snow,Light Snow,310,2014-04-15 15:47:00
11:51 AM,32.0,30.9,96,30.00,0.8,NW,8.1,16.1,0.02,Snow,Light Snow,310,2014-04-15 15:51:00
12:51 PM,34.0,32.0,92,30.01,5.0,NNW,6.9,13.8,0.03,Snow,Light Snow,330,2014-04-15 16:51:00
1:51 PM,35.1,30.0,82,30.03,10.0,NW,12.7,18.4,0.00,,Overcast,320,2014-04-15 17:51:00
2:51 PM,34.0,27.0,75,30.05,10.0,NW,10.4,20.7,N/A,,Overcast,310,2014-04-15 18:51:00
3:20 PM,35.1,26.1,70,30.05,10.0,NW,8.1,-,N/A,,Overcast,320,2014-04-15 19:20:00
3:51 PM,35.6,26.6,70,30.05,10.0,NW,9.2,-,N/A,,Overcast,310,2014-04-15 19:51:00
4:51 PM,36.0,25.0,64,30.07,10.0,NW,9.2,-,N/A,,Overcast,320,2014-04-15 20:51:00
5:51 PM,37.0,21.9,54,30.09,10.0,NW,12.7,19.6,N/A,,Overcast,320,2014-04-15 21:51:00
6:51 PM,36.0,19.9,52,30.13,10.0,NW,9.2,17.3,N/A,,Overcast,320,2014-04-15 22:51:00
7:51 PM,36.0,19.0,50,30.15,10.0,NW,13.8,-,N/A,,Overcast,320,2014-04-15 23:51:00
8:51 PM,35.1,19.0,52,30.19,10.0,NNW,6.9,-,N/A,,Overcast,340,2014-04-16 00:51:00
9:51 PM,33.1,19.0,56,30.22,10.0,North,5.8,-,N/A,,Mostly Cloudy,350,2014-04-16 01:51:00
10:51 PM,32.0,19.9,61,30.25,10.0,North,6.9,-,N/A,,Clear,350,2014-04-16 02:51:00
11:51 PM,30.9,19.9,64,30.25,10.0,North,5.8,-,N/A,,Clear,10,2014-04-16 03:51:00